Wetbulb
60.44 57.89 55.11 49.59 39.24 36.61 33.57 37.47 40.54 41.84 42.22 44.93 47.47 49.61 48.34 48.19 49.72 45.12 55.56 56.79 61.69 67.62 71.51 72.75 74.52 74.43 74.39 74.03 73.77 74.55 74.44 74.14 73.42 73.12 73.41 73.42 73.12 72.04 70.68 70.30 71.19 71.20 70.31 69.94 71.02 71.74 71.80 72.00 71.80
56.66 57.66 51.34 42.83 33.75 30.85 34.48 39.73 40.37 41.89 44.19 46.40 47.02 47.91 47.50 46.46 49.40 50.04 52.86 56.51 63.60 68.80 70.45 71.49 73.82 73.72 73.20 73.69 73.41 73.92 73.88 73.65 73.52 73.45 73.23 73.31 72.83 72.46 71.60 70.70 70.54 71.54 71.39 71.01 71.05 71.77 71.91 71.72 71.50
56.46 56.83 46.68 37.77 33.28 32.23 35.83 40.37 40.62 43.27 44.44 45.01 45.70 48.22 47.49 46.67 49.89 49.69 52.83 56.85 63.33 65.95 70.22 71.86 72.85 73.23 73.32 72.90 73.41 73.16 73.21 73.46 73.89 73.80 73.69 73.39 73.18 72.78 72.79 72.03 71.10 71.72 72.29 72.24 72.67 72.15 71.93 71.36 71.36
53.18 49.60 43.27 36.64 34.70 37.48 39.85 40.93 42.47 43.31 44.65 45.29 45.54 44.62 48.01 51.50 51.06 51.36 54.51 56.97 57.58 59.95 65.46 71.46 72.09 70.92 70.82 72.03 73.35 72.64 72.56 72.72 73.50 73.58 73.40 73.45 73.14 72.99 73.06 72.94 73.00 72.11 71.88 71.99 72.05 72.39 72.03 71.68 71.16
50.50 43.55 35.37 34.92 36.53 39.26 40.45 42.31 42.57 41.47 41.35 42.67 43.37 42.79 44.43 50.66 52.48 53.44 53.96 55.95 56.22 58.17 60.79 63.61 70.64 71.80 71.99 71.46 71.52 72.53 72.09 72.81 73.33 73.41 72.63 72.89 72.63 72.66 72.96 73.14 72.89 72.78 71.77 71.61 72.32 72.16 72.20 71.39 70.83
44.10 41.64 33.31 32.45 35.87 38.91 38.87 40.61 40.87 40.09 40.88 42.13 42.47 43.58 43.97 48.81 49.19 50.34 51.68 50.95 55.07 56.23 57.71 59.93 63.82 66.49 68.09 70.48 72.27 72.46 72.45 72.48 72.78 73.16 72.95 72.71 72.98 72.97 73.54 73.31 73.03 72.61 72.16 71.64 72.25 72.38 72.30 71.63 70.79
41.14 37.02 33.43 33.50 36.06 36.70 39.30 41.20 39.02 39.00 39.15 39.96 40.94 41.35 44.26 45.14 47.05 47.58 47.61 47.86 49.73 51.85 55.14 54.84 55.96 59.88 62.85 64.14 67.41 69.37 70.77 72.24 72.35 72.41 72.40 72.12 72.36 72.87 72.74 73.01 73.15 72.81 72.70 72.56 72.57 72.92 72.43 72.31 71.36
40.77 37.99 33.09 33.11 35.50 36.58 40.46 42.01 41.71 40.32 38.93 43.47 42.18 41.15 39.96 40.67 43.99 45.77 46.17 46.57 46.99 47.92 49.14 51.04 52.08 53.08 53.90 54.49 62.01 64.30 66.74 69.65 70.71 70.96 70.58 69.74 69.32 70.42 71.54 71.53 71.74 72.65 72.76 72.59 72.18 72.43 72.64 72.01 70.98
42.54 34.98 32.29 35.43 37.23 38.25 40.24 39.83 40.43 40.79 38.37 40.00 39.71 39.89 40.88 43.26 45.39 44.55 44.24 45.40 46.29 48.38 47.09 48.08 48.15 48.67 49.23 51.63 55.51 57.43 62.36 66.36 68.23 68.41 68.00 67.59 68.31 68.83 68.70 68.45 68.98 70.44 71.53 72.11 71.98 71.93 71.84 70.66 69.30
38.95 34.41 36.22 38.78 38.27 38.46 39.26 38.41 37.38 36.83 36.49 36.27 37.92 40.18 41.78 42.53 43.11 42.72 43.22 43.29 44.24 45.22 46.97 47.93 47.64 47.95 48.35 51.37 49.86 51.26 55.15 59.46 62.58 64.77 65.86 67.36 67.56 67.69 68.59 67.02 67.30 68.98 69.92 70.18 71.47 71.69 70.94 69.28 67.72
38.88 36.16 39.91 39.88 40.49 41.00 39.18 36.86 38.51 35.76 33.69 36.46 36.24 38.11 40.15 41.99 42.48 44.08 43.22 42.88 43.29 45.08 48.03 49.45 48.41 48.09 47.24 47.96 49.33 48.62 50.38 53.81 57.88 60.44 63.45 65.64 66.67 67.63 67.10 67.19 67.23 66.66 65.98 67.13 68.36 69.03 69.35 67.83 66.95
37.06 39.79 40.66 41.17 40.06 39.49 37.03 37.61 35.26 36.17 35.44 39.87 38.30 40.55 41.15 41.02 42.91 43.68 43.65 44.64 45.44 46.92 48.46 49.22 49.06 48.38 47.82 47.46 47.28 46.92 48.16 50.17 52.81 56.77 60.84 62.97 64.20 64.39 65.68 65.94 65.97 65.19 66.02 65.88 66.62 67.36 67.76 67.64 66.83
37.19 36.98 39.49 39.50 38.84 36.79 37.89 35.00 33.90 35.18 38.22 38.91 39.93 41.46 40.84 42.10 42.88 45.13 46.54 47.14 47.09 47.20 48.43 48.94 49.45 49.21 50.10 49.25 47.32 46.60 46.39 47.55 49.06 52.07 56.19 60.21 61.57 63.50 64.61 64.66 65.61 65.69 65.23 65.70 66.06 66.32 66.29 66.71 66.25
36.06 37.87 37.31 37.59 36.71 37.36 36.17 34.84 36.06 35.90 37.79 39.57 40.23 40.09 40.09 42.51 43.89 45.11 46.37 46.21 46.53 47.36 47.53 48.68 49.86 50.03 50.37 50.12 48.92 48.05 46.48 46.90 47.46 49.23 52.72 56.53 59.44 61.14 62.48 63.50 64.28 64.76 65.91 66.25 66.32 65.84 65.52 65.46 65.52
36.93 33.70 34.61 35.62 36.29 35.56 36.54 32.13 33.83 36.38 38.35 39.53 40.14 40.90 43.80 44.72 45.59 44.96 46.04 45.47 45.79 46.29 47.17 47.95 49.56 50.11 49.35 49.82 50.35 49.67 48.57 49.13 47.01 47.97 50.14 54.20 57.91 58.92 59.95 61.41 62.92 63.72 64.41 64.97 65.04 65.01 65.22 65.14 65.43
32.67 31.12 27.81 33.99 36.24 37.51 34.28 29.41 34.76 38.71 38.11 37.74 39.01 38.70 44.01 44.46 45.49 45.54 45.71 45.66 45.86 45.42 45.58 47.59 49.02 48.61 49.03 49.30 50.39 51.23 50.81 48.33 48.00 47.85 48.46 51.87 54.66 57.66 58.05 59.51 61.39 63.01 63.56 63.95 64.90 64.98 64.60 64.14 64.26
29.36 25.18 26.14 31.02 36.84 36.31 33.45 29.80 35.26 37.09 38.04 37.24 38.12 37.41 43.07 43.73 44.58 45.20 45.44 44.67 45.21 45.07 45.60 45.89 47.04 47.81 48.97 50.07 51.05 51.48 51.74 49.22 48.20 48.40 48.86 50.72 53.62 55.89 58.17 60.43 61.30 61.97 62.58 62.80 63.15 64.10 64.20 63.00 63.13
24.65 24.40 26.81 27.15 34.27 35.18 32.13 32.74 36.46 38.40 37.29 36.80 36.54 39.43 40.89 42.04 42.99 44.91 45.15 45.11 45.04 44.31 44.93 45.39 46.56 47.86 49.40 50.60 51.17 51.13 51.43 49.43 49.69 49.50 49.88 53.23 56.54 57.63 57.53 57.74 58.63 60.23 60.78 60.45 61.28 61.79 62.96 62.91 62.67
29.88 27.05 25.83 30.70 36.05 34.24 32.68 33.07 36.66 38.00 37.19 36.46 36.54 37.96 39.80 40.71 42.32 43.96 44.78 44.33 44.36 43.95 43.86 44.39 45.74 47.85 49.16 49.22 48.76 49.45 49.86 50.98 49.91 50.10 54.28 55.15 54.54 55.18 55.35 56.40 56.87 58.25 58.44 58.49 60.13 60.62 60.31 61.28 60.59
30.24 26.85 25.45 30.65 35.89 34.82 32.88 33.40 37.36 38.22 38.01 38.02 37.12 37.99 39.21 38.96 38.87 42.17 42.95 42.87 42.95 42.55 42.62 43.49 44.87 46.70 49.15 49.96 49.75 50.12 50.54 50.45 48.54 52.48 53.21 53.58 52.19 52.40 51.55 51.72 53.03 56.45 58.16 57.55 59.03 59.37 58.64 58.28 59.09
28.44 26.50 26.19 28.08 34.23 33.82 32.18 28.43 30.78 35.90 38.38 40.00 39.81 39.97 39.29 38.58 37.21 39.63 41.74 41.24 41.51 41.30 41.37 42.84 44.11 44.66 47.85 47.97 49.44 49.33 51.21 51.03 50.24 49.41 50.44 51.45 50.00 49.26 48.35 48.71 50.03 53.08 55.66 57.42 58.24 58.96 58.79 57.77 58.08
26.94 33.39 33.81 33.09 27.53 21.18 31.01 19.38 29.11 31.93 34.05 37.74 38.23 38.12 38.19 37.76 37.33 39.74 40.56 40.12 40.77 41.39 41.70 41.68 42.98 42.70 44.56 46.81 47.04 46.94 46.80 45.79 46.65 45.91 47.45 48.13 46.43 45.91 46.14 46.88 48.20 49.93 52.98 56.64 57.99 59.30 59.23 59.33 57.32
30.96 35.57 33.70 32.96 28.55 22.99 26.06 21.04 27.62 31.14 31.63 34.01 36.38 36.89 38.06 38.61 38.97 39.47 39.98 41.09 41.68 41.61 40.85 40.77 40.94 40.70 41.71 43.32 43.80 44.36 43.08 44.23 43.00 42.32 42.29 43.10 43.41 43.80 44.41 44.80 45.91 47.36 49.05 50.28 53.36 55.78 57.35 58.73 58.01
37.34 33.98 32.26 31.50 26.44 15.17 22.03 22.99 26.23 29.53 32.25 32.93 35.89 37.25 38.31 38.80 38.96 39.77 41.03 41.23 40.06 40.61 40.66 39.95 38.90 39.07 39.53 40.23 41.58 40.91 39.72 39.72 39.36 39.67 39.48 40.77 41.28 42.41 42.45 43.46 43.93 44.88 46.30 47.38 48.03 49.18 49.90 51.44 52.09
34.89 26.45 14.71 15.16 13.23 17.03 26.81 19.23 28.65 32.96 34.24 35.64 36.71 37.22 37.07 37.61 37.46 38.10 38.90 38.76 39.23 39.40 39.79 39.71 37.72 37.25 37.48 38.14 37.90 39.43 39.27 38.60 38.39 38.24 38.23 38.26 39.83 40.39 41.43 42.22 42.11 43.11 43.65 45.33 45.66 45.85 46.83 47.42 46.81
31.48 28.17 15.94 12.10 9.78 16.56 23.88 18.93 27.37 33.16 36.62 37.33 38.09 35.82 35.74 36.83 37.20 37.78 38.71 38.70 38.51 39.35 38.95 38.71 37.65 36.98 36.87 37.00 36.40 36.86 37.35 38.22 37.97 37.77 37.87 37.93 36.89 38.81 37.78 40.61 40.89 41.07 42.72 43.11 43.55 43.05 43.90 44.09 45.20
30.98 25.73 30.13 20.12 14.75 17.85 17.35 23.99 30.93 34.25 35.34 35.90 36.64 35.96 35.73 35.89 36.82 37.54 38.43 38.93 38.52 38.45 38.29 38.37 37.99 36.68 36.09 35.73 35.27 34.84 34.91 34.59 34.16 33.93 33.90 33.89 34.65 36.02 35.39 36.44 37.62 38.83 40.80 40.73 41.29 41.41 41.90 42.44 42.98
33.42 34.45 24.21 22.66 10.70 12.85 14.92 18.31 21.87 29.82 33.08 36.38 36.37 36.23 36.15 36.62 36.95 37.95 38.57 39.02 39.11 39.00 38.82 37.95 38.04 36.75 35.91 35.04 33.36 33.86 33.43 33.87 32.97 31.84 30.79 30.91 31.72 32.39 33.02 33.78 34.49 35.19 37.17 37.71 38.27 38.11 38.78 39.16 40.46
31.71 29.56 29.22 27.30 24.12 17.28 15.59 17.74 28.02 30.36 34.11 35.93 37.74 37.76 37.31 37.14 37.12 37.82 38.77 39.22 39.54 39.03 38.37 38.15 36.95 36.38 35.25 34.30 32.95 31.67 31.52 31.55 30.28 29.17 28.77 29.00 29.81 30.12 30.75 31.50 32.29 32.53 34.05 35.22 35.24 35.26 35.40 35.69 36.47
33.23 31.59 30.02 22.91 20.46 22.64 20.32 21.39 32.73 33.87 37.35 37.29 37.65 38.36 38.06 38.07 38.07 38.03 38.68 39.16 39.15 38.69 38.13 37.82 36.54 34.29 34.30 33.34 32.94 31.46 30.43 29.21 28.02 27.70 27.80 28.28 27.85 28.71 29.00 29.57 29.93 30.48 31.68 32.90 33.06 32.95 33.27 32.88 33.07
MSLP
1013.57 1013.37 1013.73 1014.08 1015.83 1016.65 1016.86 1016.53 1015.90 1015.37 1015.19 1015.20 1015.09 1015.29 1016.02 1016.66 1017.11 1017.75 1017.10 1016.86 1016.40 1015.82 1015.18 1014.86 1014.99 1015.16 1015.17 1015.30 1015.34 1015.39 1015.44 1015.47 1015.50 1015.52 1015.55 1015.54 1015.48 1015.61 1015.72 1015.74 1015.69 1015.62 1015.60 1015.63 1015.62 1015.63 1015.64 1015.68 1015.79
1013.62 1013.64 1014.13 1015.35 1016.59 1017.43 1017.39 1016.62 1016.03 1015.66 1015.38 1015.46 1015.58 1016.11 1016.44 1017.34 1017.34 1017.42 1017.25 1016.92 1016.45 1015.80 1015.37 1015.10 1015.10 1015.29 1015.41 1015.43 1015.53 1015.53 1015.56 1015.62 1015.66 1015.64 1015.63 1015.61 1015.63 1015.62 1015.70 1015.76 1015.78 1015.74 1015.66 1015.66 1015.66 1015.67 1015.73 1015.77 1015.81
1013.67 1013.85 1015.10 1016.36 1017.43 1017.76 1017.35 1016.60 1016.13 1015.79 1015.52 1015.44 1016.17 1016.61 1017.04 1017.68 1017.59 1017.65 1017.51 1017.21 1016.57 1015.93 1015.52 1015.21 1015.23 1015.33 1015.46 1015.57 1015.55 1015.59 1015.59 1015.62 1015.64 1015.62 1015.63 1015.62 1015.63 1015.64 1015.70 1015.71 1015.77 1015.78 1015.74 1015.70 1015.62 1015.65 1015.79 1015.89 1015.90
1014.07 1014.71 1016.32 1016.77 1017.79 1017.66 1017.11 1016.59 1016.27 1015.98 1015.80 1015.83 1016.46 1017.34 1017.61 1017.79 1017.66 1017.63 1017.54 1017.24 1016.89 1016.27 1015.92 1015.69 1015.49 1015.49 1015.50 1015.44 1015.57 1015.59 1015.62 1015.58 1015.57 1015.62 1015.69 1015.62 1015.56 1015.58 1015.60 1015.63 1015.70 1015.79 1015.83 1015.72 1015.46 1015.53 1015.65 1015.80 1015.91
1014.72 1015.91 1017.18 1017.93 1018.00 1017.63 1017.12 1016.72 1016.43 1016.44 1016.56 1016.71 1016.72 1017.69 1018.01 1017.90 1017.74 1017.66 1017.65 1017.43 1017.23 1016.78 1016.44 1016.17 1016.01 1015.84 1015.75 1015.69 1015.68 1015.67 1015.59 1015.55 1015.55 1015.50 1015.38 1015.47 1015.47 1015.48 1015.50 1015.59 1015.56 1015.58 1015.61 1015.69 1015.59 1015.50 1015.63 1015.68 1015.78
1015.84 1016.60 1017.95 1018.56 1018.21 1017.73 1017.29 1016.97 1016.75 1016.98 1017.10 1017.08 1017.30 1017.84 1018.33 1018.10 1018.01 1018.03 1017.83 1017.75 1017.54 1017.38 1017.01 1016.71 1016.48 1016.36 1016.24 1016.13 1015.93 1015.79 1015.72 1015.62 1015.58 1015.55 1015.45 1015.44 1015.42 1015.41 1015.37 1015.37 1015.39 1015.46 1015.48 1015.38 1015.33 1015.44 1015.58 1015.68 1015.71
1016.07 1017.21 1018.33 1018.56 1018.45 1017.94 1017.52 1017.17 1017.32 1017.38 1017.38 1017.46 1017.59 1018.26 1018.48 1018.32 1018.30 1018.18 1018.03 1017.90 1017.72 1017.55 1017.35 1017.23 1017.00 1016.72 1016.52 1016.40 1016.21 1016.10 1015.91 1015.69 1015.59 1015.51 1015.47 1015.43 1015.33 1015.30 1015.26 1015.26 1015.22 1015.15 1015.16 1015.22 1015.30 1015.19 1015.22 1015.31 1015.51
1016.31 1017.30 1018.62 1018.77 1018.62 1018.11 1017.73 1017.58 1017.67 1017.64 1017.68 1017.49 1017.52 1018.22 1018.54 1018.39 1018.40 1018.33 1018.22 1018.05 1017.97 1017.84 1017.74 1017.64 1017.50 1017.30 1017.05 1016.78 1016.45 1016.19 1015.96 1015.79 1015.61 1015.51 1015.43 1015.40 1015.32 1015.26 1015.21 1015.11 1015.02 1014.97 1014.94 1014.91 1014.91 1014.90 1014.96 1014.94 1015.04
1016.34 1017.75 1019.06 1018.75 1018.55 1018.23 1017.94 1017.93 1017.99 1017.88 1017.87 1017.82 1017.86 1018.13 1018.30 1018.44 1018.57 1018.67 1018.63 1018.61 1018.41 1018.36 1018.34 1018.08 1017.92 1017.67 1017.46 1017.10 1016.78 1016.58 1016.20 1015.90 1015.71 1015.53 1015.38 1015.33 1015.19 1015.09 1014.99 1014.97 1014.91 1014.81 1014.71 1014.61 1014.59 1014.51 1014.50 1014.61 1014.79
1017.04 1018.27 1018.75 1018.63 1018.39 1018.33 1018.26 1018.27 1018.34 1018.31 1018.28 1018.22 1018.27 1018.46 1018.55 1018.77 1018.99 1019.06 1019.16 1019.34 1019.25 1019.05 1018.74 1018.60 1018.23 1018.00 1017.72 1017.33 1017.16 1016.92 1016.59 1016.24 1015.88 1015.61 1015.39 1015.21 1015.13 1014.79 1014.71 1014.67 1014.68 1014.64 1014.56 1014.45 1014.27 1014.22 1014.21 1014.26 1014.44
1017.73 1018.42 1018.81 1018.91 1018.70 1018.46 1018.58 1018.69 1018.66 1018.58 1018.64 1018.42 1018.43 1018.58 1018.81 1019.07 1019.10 1019.28 1019.58 1019.66 1019.66 1019.56 1019.28 1018.91 1018.52 1018.23 1018.01 1017.80 1017.45 1017.12 1016.86 1016.49 1016.05 1015.66 1015.31 1015.05 1014.82 1014.62 1014.51 1014.40 1014.33 1014.30 1014.27 1014.28 1014.19 1014.07 1013.94 1014.02 1014.16
1018.18 1018.82 1018.86 1019.21 1019.18 1019.02 1019.18 1019.21 1019.07 1018.94 1018.55 1018.38 1018.59 1018.65 1018.87 1019.15 1019.44 1019.65 1019.82 1020.06 1019.98 1019.85 1019.68 1019.25 1018.80 1018.45 1018.17 1017.92 1017.63 1017.29 1016.98 1016.60 1016.26 1015.81 1015.44 1015.16 1014.81 1014.53 1014.36 1014.22 1013.95 1013.87 1013.74 1013.75 1013.69 1013.63 1013.51 1013.44 1013.53
1018.52 1019.20 1019.32 1019.58 1019.51 1019.65 1019.59 1019.55 1019.56 1019.04 1018.70 1018.81 1018.85 1018.87 1019.07 1019.43 1019.82 1020.06 1020.22 1020.33 1020.33 1020.06 1019.68 1019.31 1018.94 1018.58 1018.30 1017.91 1017.65 1017.37 1016.99 1016.61 1016.23 1015.85 1015.44 1015.15 1014.90 1014.68 1014.19 1014.05 1013.77 1013.44 1013.23 1013.21 1013.08 1013.01 1012.99 1013.05 1013.02
1019.32 1019.64 1019.90 1019.94 1019.95 1020.01 1020.06 1019.97 1019.75 1018.80 1018.55 1018.66 1018.90 1019.14 1019.67 1019.78 1020.12 1020.51 1020.71 1020.79 1020.58 1020.33 1019.98 1019.64 1019.15 1018.70 1018.43 1018.04 1017.68 1017.28 1016.94 1016.56 1016.16 1015.79 1015.35 1015.01 1014.83 1014.58 1014.25 1014.03 1013.66 1013.24 1012.97 1012.75 1012.53 1012.41 1012.34 1012.47 1012.62
1019.77 1020.26 1020.35 1020.25 1020.19 1020.34 1020.29 1020.05 1019.63 1018.94 1018.85 1018.99 1019.23 1019.77 1020.14 1020.47 1020.64 1020.96 1021.16 1021.13 1021.01 1020.74 1020.43 1019.92 1019.26 1018.76 1018.63 1018.22 1017.74 1017.34 1016.82 1016.33 1016.10 1015.70 1015.26 1014.90 1014.55 1014.35 1014.10 1013.85 1013.50 1013.06 1012.66 1012.37 1012.05 1012.03 1011.94 1012.08 1012.26
1020.49 1020.81 1020.94 1020.47 1020.35 1020.43 1020.49 1019.93 1019.19 1019.06 1019.21 1019.39 1019.70 1020.14 1020.57 1020.94 1021.11 1021.34 1021.42 1021.32 1021.20 1021.02 1020.59 1020.12 1019.50 1019.02 1018.62 1018.16 1017.67 1017.16 1016.67 1016.33 1015.86 1015.52 1015.11 1014.72 1014.28 1013.95 1013.74 1013.50 1013.08 1012.70 1012.51 1012.26 1012.02 1011.72 1011.68 1011.73 1011.79
1021.78 1021.56 1021.25 1020.87 1020.78 1020.86 1021.11 1020.46 1019.48 1019.41 1019.55 1019.85 1020.13 1020.37 1020.88 1021.22 1021.38 1021.49 1021.62 1021.58 1021.39 1021.14 1020.76 1020.23 1019.72 1019.32 1018.69 1018.03 1017.50 1017.01 1016.42 1016.06 1015.61 1015.27 1014.90 1014.47 1014.18 1013.82 1013.54 1013.26 1012.85 1012.50 1012.25 1012.06 1011.83 1011.34 1011.24 1011.22 1011.16
1022.31 1021.96 1021.62 1021.56 1021.73 1021.50 1021.55 1020.68 1020.08 1019.85 1020.03 1020.05 1020.38 1020.85 1021.22 1021.40 1021.54 1021.60 1021.65 1021.50 1021.28 1020.99 1020.67 1020.31 1019.82 1019.19 1018.54 1017.87 1017.30 1016.75 1016.30 1015.94 1015.46 1015.09 1014.68 1014.30 1014.03 1013.82 1013.42 1012.96 1012.58 1012.19 1012.07 1011.67 1011.44 1011.14 1010.70 1010.61 1010.48
1022.36 1022.27 1022.38 1022.22 1022.24 1022.21 1021.75 1021.04 1019.57 1019.72 1019.89 1019.91 1020.32 1020.97 1021.28 1021.55 1021.64 1021.57 1021.54 1021.36 1021.13 1020.89 1020.72 1020.45 1019.86 1019.34 1018.78 1018.09 1017.63 1017.08 1016.63 1016.11 1015.65 1015.26 1014.88 1014.55 1014.43 1014.01 1013.42 1013.11 1012.67 1012.10 1011.48 1011.20 1010.98 1010.61 1010.50 1010.27 1010.32
1022.70 1022.89 1023.01 1022.80 1022.71 1023.02 1022.21 1021.11 1019.44 1019.30 1019.23 1019.36 1019.93 1020.85 1021.26 1021.53 1021.65 1021.60 1021.46 1021.34 1021.39 1021.30 1021.06 1020.64 1020.21 1019.69 1019.06 1018.52 1017.97 1017.57 1016.96 1016.42 1016.13 1015.49 1015.24 1014.88 1014.78 1014.74 1013.89 1013.41 1013.07 1012.19 1011.26 1010.51 1010.33 1010.34 1010.00 1009.85 1009.94
1023.59 1023.62 1023.74 1024.00 1023.65 1023.47 1023.13 1021.31 1019.81 1019.30 1019.29 1019.49 1019.89 1020.61 1021.15 1021.32 1021.38 1021.41 1021.35 1021.54 1021.53 1021.38 1021.17 1020.84 1020.42 1019.97 1019.29 1018.77 1018.23 1017.66 1016.99 1016.60 1016.12 1015.94 1015.64 1015.11 1015.26 1015.13 1014.50 1013.95 1013.29 1012.27 1011.32 1010.06 1009.53 1009.64 1009.70 1009.49 1009.45
1023.92 1023.89 1024.15 1024.56 1024.95 1025.02 1024.46 1023.09 1020.59 1019.64 1019.59 1019.89 1020.36 1020.75 1021.02 1021.17 1021.22 1021.28 1021.38 1021.47 1021.43 1021.27 1021.10 1020.84 1020.43 1020.02 1019.44 1019.01 1018.49 1018.03 1017.64 1017.28 1017.10 1016.80 1016.22 1015.82 1015.61 1015.50 1014.51 1014.16 1013.55 1012.90 1011.53 1010.11 1009.28 1008.85 1009.07 1009.12 1009.12
1023.90 1024.07 1024.56 1025.08 1025.82 1026.49 1025.63 1025.03 1020.52 1019.87 1019.74 1019.73 1020.06 1020.52 1020.81 1020.97 1021.11 1021.22 1021.24 1021.28 1021.16 1021.14 1021.05 1020.85 1020.53 1020.14 1019.59 1019.19 1018.91 1018.59 1018.34 1017.98 1017.66 1017.22 1016.69 1016.26 1015.83 1015.40 1014.78 1014.61 1013.91 1013.52 1012.53 1011.32 1010.17 1009.16 1008.86 1008.54 1008.89
1023.93 1024.45 1025.09 1025.72 1026.70 1027.29 1026.21 1025.56 1021.45 1019.95 1019.04 1019.06 1019.55 1020.12 1020.51 1020.87 1021.02 1021.11 1021.17 1021.20 1021.19 1021.05 1021.06 1020.86 1020.39 1020.07 1019.85 1019.54 1019.22 1018.89 1018.65 1018.49 1018.19 1017.73 1017.39 1017.12 1016.62 1015.24 1015.19 1015.06 1014.66 1014.13 1013.35 1012.40 1011.44 1010.57 1009.78 1009.31 1009.02
1024.15 1024.99 1026.11 1027.19 1027.78 1027.41 1026.54 1025.90 1020.93 1018.93 1018.52 1018.58 1018.97 1019.74 1020.27 1020.63 1020.89 1021.05 1021.09 1021.02 1020.93 1020.95 1020.77 1020.64 1020.40 1020.18 1019.99 1019.79 1019.41 1019.17 1019.19 1019.02 1018.77 1018.51 1018.15 1017.47 1017.03 1016.25 1015.80 1015.51 1015.20 1014.69 1013.94 1013.22 1012.42 1011.61 1010.80 1010.26 1009.46
1024.34 1025.22 1026.69 1028.23 1029.27 1028.57 1027.02 1024.78 1020.01 1018.77 1018.44 1018.53 1018.90 1019.53 1020.02 1020.38 1020.60 1020.74 1020.69 1020.73 1020.75 1020.65 1020.56 1020.53 1020.23 1020.06 1019.88 1019.73 1019.64 1019.54 1019.33 1019.13 1018.95 1018.73 1018.45 1018.18 1017.59 1016.98 1016.67 1016.32 1016.03 1015.28 1014.70 1013.78 1013.12 1012.53 1012.16 1011.97 1011.37
1024.48 1025.35 1026.41 1027.89 1029.70 1029.32 1026.44 1023.57 1019.84 1018.55 1018.52 1018.69 1018.94 1019.45 1019.78 1020.10 1020.13 1020.16 1020.22 1020.30 1020.35 1020.30 1020.26 1020.26 1020.10 1019.96 1019.82 1019.83 1019.82 1019.76 1019.54 1019.32 1019.12 1018.79 1018.58 1018.34 1017.99 1017.63 1017.17 1016.68 1016.25 1015.69 1015.33 1014.61 1013.99 1013.35 1013.00 1012.53 1012.05
1024.15 1025.20 1026.26 1027.64 1029.00 1028.88 1026.10 1024.08 1020.65 1018.76 1018.23 1018.34 1018.75 1018.92 1019.19 1019.50 1019.63 1019.67 1019.69 1019.75 1019.86 1019.87 1019.85 1020.07 1020.11 1020.10 1019.99 1019.95 1019.91 1019.74 1019.52 1019.31 1019.14 1018.96 1018.79 1018.49 1018.22 1017.91 1017.44 1016.97 1016.61 1016.24 1015.85 1015.33 1014.88 1014.33 1014.02 1013.54 1012.59
1024.57 1025.05 1025.94 1026.96 1027.74 1027.95 1026.42 1022.36 1018.72 1017.94 1017.54 1017.65 1017.60 1017.90 1018.27 1018.60 1018.76 1018.92 1018.98 1019.05 1019.18 1019.26 1019.44 1019.62 1019.70 1019.72 1019.72 1019.70 1019.69 1019.68 1019.61 1019.44 1019.24 1019.10 1018.97 1018.83 1018.60 1018.33 1017.98 1017.58 1017.05 1016.50 1016.15 1015.73 1015.21 1014.85 1014.91 1014.51 1014.20
1023.90 1024.33 1025.10 1026.28 1026.77 1026.60 1025.68 1020.70 1017.71 1017.25 1017.14 1017.27 1017.18 1017.33 1017.40 1017.64 1017.72 1018.01 1018.22 1018.46 1018.59 1018.66 1018.81 1018.97 1019.12 1019.27 1019.26 1019.23 1019.32 1019.43 1019.48 1019.44 1019.38 1019.30 1019.14 1018.94 1018.75 1018.52 1018.29 1018.00 1017.69 1017.27 1016.84 1016.45 1016.14 1015.67 1015.04 1014.72 1014.54
Wind_Speed
4 3 2 6 6 6 1 1 3 3 3 4 3 7 9 4 4 3 4 6 10 8 8 2 4 3 4 2 3 2 2 3 2 2 4 5 4 6 3 4 5 5 5 4 5 4 7 7 7
3 1 5 3 7 4 4 3 3 0 1 6 5 2 6 4 2 2 4 8 9 9 6 3 4 3 3 1 1 2 2 2 2 3 3 4 3 3 4 5 5 6 5 5 6 4 8 8 8
1 3 5 6 4 5 4 3 4 0 4 2 4 6 3 2 1 1 4 8 8 8 9 5 2 3 3 3 1 1 2 3 4 5 5 5 5 5 6 6 6 6 5 6 9 5 9 7 6
3 5 5 6 3 1 4 3 2 1 4 7 3 6 3 1 1 1 5 6 6 7 10 11 7 2 1 3 1 2 3 4 5 6 7 7 6 6 7 7 7 6 6 7 7 10 11 9 8
4 3 5 5 2 2 1 2 1 2 3 5 3 3 3 3 2 2 5 6 7 7 7 8 16 13 6 4 3 4 6 5 6 6 6 5 6 7 8 8 8 8 8 9 9 10 12 11 11
5 4 6 4 3 2 1 3 2 3 3 3 5 4 1 2 3 6 6 6 6 6 7 8 11 13 14 14 11 9 8 8 8 8 7 8 9 9 9 9 9 10 11 11 11 11 13 12 12
6 5 5 5 6 2 1 2 3 3 2 3 1 4 1 1 2 5 6 6 6 7 6 6 7 9 11 11 12 13 13 11 10 10 10 9 9 8 10 10 10 11 12 12 12 11 15 14 14
5 5 4 1 5 3 2 2 2 3 1 5 1 4 3 2 2 5 5 6 6 7 7 7 7 7 8 7 11 12 12 12 12 11 9 10 9 10 10 10 10 11 12 12 12 12 14 17 15
3 6 3 6 6 4 1 3 1 1 1 3 3 4 3 1 5 5 5 7 6 7 7 7 8 8 7 7 7 11 12 12 10 8 8 8 5 6 7 8 11 12 13 13 14 14 14 16 12
6 4 6 1 2 4 2 2 1 2 3 1 2 2 1 2 3 3 5 6 5 6 7 7 7 8 7 7 7 7 7 6 5 5 6 5 6 6 7 7 10 14 15 14 14 15 13 10 5
2 4 4 2 2 2 3 2 3 3 3 4 4 2 1 2 2 6 6 5 4 4 5 8 7 7 7 6 5 3 4 4 5 7 6 5 5 5 4 4 5 5 8 7 8 8 7 6 5
7 4 3 1 4 3 2 2 3 2 3 6 1 2 1 2 6 6 7 6 6 6 6 7 8 7 7 4 4 4 4 4 4 5 7 5 4 4 5 5 6 4 5 7 7 6 8 9 9
6 2 5 4 6 3 0 1 3 6 8 6 5 5 5 6 6 6 6 6 6 8 9 9 8 7 8 7 4 5 5 5 5 5 6 5 5 6 5 5 6 5 5 7 7 8 7 9 9
3 5 3 4 2 2 2 0 4 4 1 3 5 5 4 6 5 5 6 6 7 7 8 8 9 7 9 8 7 6 4 6 5 5 6 7 5 5 6 6 7 7 7 7 8 8 8 8 8
4 5 2 4 3 2 2 3 7 5 2 4 2 6 7 6 7 7 5 6 6 6 7 8 9 9 8 8 7 6 6 6 5 5 7 7 6 5 6 7 7 7 7 10 7 6 6 6 7
5 5 2 2 3 2 3 8 3 3 6 5 5 0 6 4 5 5 5 4 6 6 7 7 9 9 10 9 8 7 7 5 6 5 4 7 7 6 7 7 7 7 6 6 7 7 6 7 8
6 3 1 4 2 3 2 7 5 2 4 6 7 2 7 5 4 3 4 4 5 6 7 9 9 9 11 9 6 6 8 5 5 4 5 7 6 7 5 6 7 7 7 8 8 8 7 7 8
4 4 1 1 5 3 4 14 10 8 6 10 6 6 6 5 1 2 3 4 4 5 6 8 8 10 10 10 10 7 6 4 4 5 4 6 6 9 8 6 7 6 7 9 9 10 8 8 9
5 4 2 1 1 4 5 10 17 9 9 10 8 8 7 5 0 2 3 5 6 7 8 8 9 11 9 8 8 6 8 8 5 6 8 9 11 11 11 8 9 6 6 8 11 9 8 8 4
6 3 2 5 2 3 5 16 17 8 6 6 8 8 7 4 2 2 3 6 6 6 6 7 8 10 7 6 6 3 6 3 3 6 7 11 14 12 10 10 11 12 9 8 9 9 8 4 5
4 4 1 2 7 1 8 9 4 1 2 4 6 5 4 4 3 3 5 4 5 6 6 6 6 7 7 7 5 6 4 3 5 7 6 9 11 11 12 13 12 13 11 10 9 7 9 9 5
2 1 2 1 5 3 4 7 8 1 2 2 5 5 6 4 2 2 3 3 4 4 5 5 6 6 5 6 5 5 4 4 4 5 6 6 9 9 10 12 13 14 11 9 9 7 8 6 7
2 1 1 1 2 4 2 2 10 2 4 7 8 8 7 6 5 5 5 5 5 4 4 5 5 5 5 5 5 4 3 3 3 3 5 6 6 8 12 12 12 12 11 11 9 6 3 3 8
2 2 4 3 3 3 4 4 8 4 5 4 4 8 8 7 6 6 5 4 5 4 3 4 3 3 5 5 4 4 5 5 4 6 5 6 5 5 10 12 10 10 10 12 10 8 6 6 8
2 5 4 7 6 6 1 2 14 7 6 6 9 9 8 6 5 6 6 5 5 5 3 4 3 3 4 4 6 6 5 6 5 5 4 6 7 7 9 8 10 9 10 9 9 10 12 9 9
1 4 7 5 2 6 4 8 9 2 6 3 3 3 5 7 6 7 7 6 6 6 4 3 2 3 4 5 5 5 4 2 3 4 4 5 5 5 8 8 8 9 11 9 8 7 7 8 8
2 2 3 6 2 2 4 9 11 5 4 3 5 4 8 8 8 9 7 7 7 7 6 5 4 2 2 3 3 4 4 5 4 5 4 3 4 6 8 7 8 8 7 8 9 6 7 6 7
1 5 4 3 2 6 7 7 9 5 7 8 9 11 10 8 8 8 8 7 7 6 6 5 5 4 3 3 2 1 2 3 4 5 6 6 5 6 6 6 6 7 8 8 8 6 7 7 7
2 1 2 3 5 5 5 9 9 8 8 10 12 9 10 9 9 9 8 7 7 6 5 6 5 5 4 3 2 1 2 3 4 4 5 5 5 6 6 6 7 7 6 7 7 8 9 8 7
4 7 6 5 5 4 2 12 3 8 6 6 9 8 7 8 9 9 8 7 7 7 7 7 6 6 6 4 3 2 0 2 3 3 5 5 5 5 5 5 5 5 5 6 5 6 7 7 8
Wind_Direction
330 353 76 43 61 65 39 62 297 36 57 350 333 91 124 69 60 148 301 310 327 314 340 25 152 127 131 128 74 131 193 188 208 156 170 184 204 156 180 180 189 192 193 206 224 223 155 150 142
342 77 47 79 85 82 271 286 100 112 197 142 79 76 45 78 35 1 8 327 320 319 341 321 148 148 151 152 100 117 170 210 226 215 204 226 240 196 208 213 218 225 224 232 246 257 174 165 158
308 38 81 93 104 146 169 195 165 75 9 103 98 51 69 46 59 73 297 318 332 347 348 20 178 164 180 185 185 215 215 208 220 222 226 228 234 231 231 234 235 238 257 270 256 211 177 180 179
57 15 35 78 103 60 168 183 232 164 22 33 113 63 47 296 83 244 336 350 4 3 6 4 24 299 239 192 215 268 259 251 229 245 259 232 223 241 245 241 236 241 256 267 234 187 186 187 197
40 53 66 79 92 93 352 353 305 74 60 11 6 136 67 2 339 340 7 4 17 359 6 14 20 5 7 329 292 287 278 271 264 261 266 246 233 244 254 246 239 233 239 253 248 208 203 199 201
49 95 68 144 142 119 349 334 65 48 19 3 61 85 188 308 359 343 6 5 3 6 357 7 14 17 16 1 342 327 310 289 276 267 262 258 255 255 254 252 245 245 245 239 240 230 218 215 212
108 83 141 131 149 160 162 328 73 103 40 29 154 92 203 46 16 348 356 19 22 15 16 6 1 0 7 358 0 0 344 308 284 276 273 265 260 257 258 257 251 247 243 245 243 246 225 217 217
100 90 96 99 178 200 355 76 115 79 196 303 137 152 193 202 15 6 13 14 15 12 18 6 0 355 350 341 341 347 342 345 328 298 281 276 272 266 263 259 253 252 248 243 241 238 227 228 218
100 65 127 167 162 165 325 118 4 340 31 16 23 125 155 87 26 27 10 359 4 6 12 5 1 352 345 333 340 342 335 335 337 331 312 294 263 259 259 256 254 254 251 247 245 238 231 232 220
72 89 182 254 126 145 106 103 348 134 16 37 87 73 57 55 53 53 24 15 8 0 357 8 3 356 351 348 342 332 327 320 315 313 307 296 279 257 250 251 254 258 258 254 247 246 241 228 204
63 132 147 13 91 82 114 109 312 142 223 211 178 202 186 104 10 28 38 41 27 353 1 356 354 350 359 352 338 334 329 318 314 309 302 298 300 292 262 247 250 247 254 254 255 250 236 217 202
92 50 84 115 12 40 90 342 304 219 239 146 77 294 20 4 28 32 61 30 12 7 354 349 349 350 347 336 336 321 330 326 312 306 307 308 300 287 280 269 253 234 239 237 232 232 231 218 210
78 94 59 77 50 64 31 355 281 265 258 264 276 295 294 13 62 62 58 36 15 8 350 347 338 345 344 335 325 321 320 317 302 305 297 293 293 291 288 277 275 256 243 235 233 229 229 225 215
74 83 83 47 32 42 357 289 13 272 299 188 192 222 35 70 92 59 36 19 13 352 346 336 336 342 338 335 325 313 303 299 308 304 296 300 284 287 284 281 276 271 265 252 242 232 220 222 219
108 74 21 23 32 18 32 283 236 246 279 154 167 59 98 91 71 65 36 24 2 341 327 334 335 342 333 326 321 316 305 314 296 288 298 298 295 284 282 284 281 275 272 266 247 243 237 228 228
62 54 72 333 13 21 37 271 270 220 178 201 324 243 139 106 91 69 34 11 353 338 336 324 338 333 334 327 321 316 309 303 299 305 295 288 285 282 286 282 274 275 272 268 258 241 234 237 233
11 147 172 329 27 338 90 276 294 119 175 246 295 240 153 133 81 58 27 357 354 343 335 337 338 336 330 324 309 297 298 293 289 294 301 296 294 290 288 295 292 281 274 278 272 251 233 232 233
181 131 91 268 349 344 283 268 261 264 254 261 260 170 167 161 104 35 7 349 357 350 345 342 340 344 342 345 337 325 313 293 302 314 309 317 330 323 312 298 280 273 283 284 276 262 241 238 236
105 85 68 267 111 340 243 275 278 244 240 253 228 186 184 186 280 354 353 358 5 2 356 345 339 342 349 343 339 332 331 322 329 349 357 9 2 353 342 318 299 274 257 269 281 265 251 244 225
59 89 326 292 318 349 318 288 280 274 238 231 185 177 182 200 259 298 351 19 5 340 341 336 334 329 336 331 343 315 304 319 298 2 2 16 7 355 349 341 323 302 273 258 258 263 260 246 191
42 112 67 233 322 253 327 294 313 352 78 63 104 142 182 212 292 343 357 358 336 338 334 326 312 310 336 345 344 339 1 348 11 7 354 6 6 357 357 344 336 322 296 265 254 242 244 258 216
118 175 92 31 36 273 29 277 296 324 186 178 175 190 208 232 274 281 294 307 302 310 317 312 311 317 343 342 349 10 12 14 1 359 350 360 2 351 4 349 349 336 327 320 263 245 238 229 253
165 165 183 186 84 32 352 57 270 351 240 233 222 226 229 230 232 252 258 256 283 293 304 303 320 339 346 353 356 352 359 15 340 331 8 4 360 3 10 359 359 344 337 346 334 12 357 253 240
101 91 45 40 86 18 249 125 282 224 210 226 206 223 224 225 239 254 260 262 278 293 299 297 353 353 348 358 8 27 31 16 359 2 5 356 319 20 14 1 356 350 349 352 351 2 30 47 74
100 57 343 352 8 226 187 52 245 247 232 215 204 210 219 224 245 250 251 253 266 270 301 312 5 355 357 358 19 23 16 26 13 359 342 351 347 1 355 356 355 348 354 353 3 13 21 27 63
142 123 147 229 268 285 356 246 257 239 303 247 157 172 202 233 240 243 245 247 254 265 272 276 304 330 356 4 9 8 1 1 352 342 338 342 357 347 353 350 353 357 346 349 4 20 31 25 33
147 53 172 102 85 8 258 288 292 251 227 240 235 229 237 236 235 235 239 232 238 246 250 247 256 277 306 352 351 357 3 13 9 8 9 356 359 354 352 349 348 351 349 357 355 14 11 28 34
122 156 54 13 6 290 286 272 242 294 235 220 233 232 238 237 238 234 230 229 230 235 243 247 251 255 281 310 337 345 345 2 11 12 10 9 5 6 354 351 354 354 359 2 1 15 11 13 27
127 199 102 123 162 200 297 262 215 231 221 216 229 223 226 228 230 231 230 226 226 229 234 242 240 240 250 253 265 325 2 15 19 23 6 3 360 3 5 357 353 355 3 6 13 16 11 20 21
179 192 155 139 226 235 200 270 248 245 265 248 253 239 237 226 228 223 223 224 222 222 221 226 234 232 230 227 221 227 279 26 33 9 354 357 1 357 357 357 0 349 355 7 28 19 10 21 23